Regional Weather Roundup
Issued by NWS

Home | Current Version | Previous Version | Graphics & Text | Print | Product List | Glossary On
Versions: 1 2 3 4 5 6 7 8 9 10 11 12 13 14 15 16 17 18 19 20 21 22 23 24 25 26 27 28 29 30 31 32 33 34 35 36 37 38 39 40 41 42 43 44 45 46 47 48 49 50
000
ASUS45 KBOI 050510
RWRID
WEATHER ROUNDUP FOR IDAHO
NATIONAL WEATHER SERVICE BOISE ID
1000 PM MST WED MAR 04 2015

NOTE: "FAIR" INDICATES FEW OR NO CLOUDS BELOW 12000 FEET
WITH NO SIGNIFICANT WEATHER AND/OR OBSTRUCTIONS TO VISIBILITY

IDZ012-014-050600-
SOUTHWEST IDAHO


CITY           SKY/WX    TMP DP  RH WIND       PRES   REMARKS
BOISE          CLEAR     30  13  49 SE5       30.30R WCI  25
CALDWELL       CLEAR     30   9  40 E3        30.33R
MOUNTAIN HOME  CLEAR     29  10  43 CALM      30.30R
$$

IDZ016-017-050600-
SOUTHCENTRAL IDAHO


CITY           SKY/WX    TMP DP  RH WIND       PRES   REMARKS
JEROME         CLEAR     28   8  43 SE5       30.29R WCI  23
TWIN FALLS     CLEAR     28  11  48 S12       30.28R WCI  18
$$

IDZ019>023-050600-
SOUTHEAST IDAHO


CITY           SKY/WX    TMP DP  RH WIND       PRES   REMARKS
IDAHO FALLS    CLEAR     24  12  60 CALM      30.26R
POCATELLO      CLEAR     29  11  47 SW10      30.29R WCI  20
REXBURG        CLEAR     18  10  71 N5        30.26R WCI  11
$$

IDZ006-010-011-018-031-032-050600-
CENTRAL IDAHO MOUNTAINS


CITY           SKY/WX    TMP DP  RH WIND       PRES   REMARKS
MCCALL         CLEAR     24  10  55 NE5       30.25R WCI  18
HAILEY         CLEAR     27  16  63 NW5       30.26R WCI  21
STANLEY          N/A     17   3  54 CALM      30.24R
SALMON         CLEAR     21   9  58 CALM      30.24R
CHALLIS        CLEAR     23   9  55 CALM      30.22R
$$

IDZ002-004-006-007-026-050600-
NORTHERN IDAHO


CITY           SKY/WX    TMP DP  RH WIND       PRES   REMARKS
LEWISTON       CLEAR     35  16  45 S5        30.29R WCI  31
LOWELL           N/A     29  21  72 NW3       30.39R
COEUR D`ALENE  CLEAR     32  18  55 CALM      30.25S
MULLAN PASS    CLEAR     21   5  50 SW6       30.15R WCI  13
$$


USA.gov is the U.S. government's official web portal to all federal, state and local government web resources and services.